Regional Weather Roundup
Issued by NWS Charleston, WV

Home | Current Version | Previous Version | Graphics & Text | Print | Product List | Glossary On
Versions: 1 2 3 4 5 6 7 8 9 10 11 12 13 14 15 16 17 18 19 20 21 22 23 24 25 26 27 28 29 30 31 32 33 34 35 36 37 38 39 40 41 42 43 44 45 46 47 48 49
000
ASUS41 KRLX 170910
RWRRLX
West Virginia Regional Weather Roundup
National Weather Service Charleston WV
400 AM EST FRI NOV 17 2017

Note: "fair" indicates few or no clouds below 12,000 feet with no
significant weather and/or obstructions to visibility.

WVZ003-171000-
Northern Panhandle of West Virginia

CITY           SKY/WX    TMP DP  RH WIND       PRES   REMARKS
WHEELING       CLOUDY    36  28  73 W6        30.21S
$$

WVZ009-171000-
Northwest West Virginia

CITY           SKY/WX    TMP DP  RH WIND       PRES   REMARKS
PARKERSBURG    CLOUDY    37  32  82 CALM      30.27F
$$

WVZ006-171000-
Western West Virginia

CITY           SKY/WX    TMP DP  RH WIND       PRES   REMARKS
HUNTINGTON     CLOUDY    37  28  70 S5        30.26F
$$

WVZ015-171000-
West Central West Virginia

CITY           SKY/WX    TMP DP  RH WIND       PRES   REMARKS
CHARLESTON     CLOUDY    38  29  70 S5        30.26F
$$

WVZ022-031-171000-
North Central West Virginia

CITY           SKY/WX    TMP DP  RH WIND       PRES   REMARKS
CLARKSBURG     CLOUDY    37  30  75 W5        30.23S
MORGANTOWN     CLOUDY    38  27  64 NW3       30.22S
$$

WVZ025-035-042-045-171000-
Southern West Virginia

CITY           SKY/WX    TMP DP  RH WIND       PRES   REMARKS
BECKLEY        CLOUDY    31  25  78 CALM      30.21S
LOGAN          CLOUDY    34  28  80 CALM      30.24F
BLUEFIELD      CLOUDY    31  26  82 CALM      30.21S
LEWISBURG      CLOUDY    32  28  82 SW5       30.21S
$$

WVZ047-171000-
Northern Mountains of West Virginia

CITY           SKY/WX    TMP DP  RH WIND       PRES   REMARKS
ELKINS         CLOUDY    34  26  72 CALM      30.20F
$$

WVZ052-171000-
Eastern Panhandle of West Virginia

CITY           SKY/WX    TMP DP  RH WIND       PRES   REMARKS
MARTINSBURG    PTCLDY    41  27  57 NW16      30.13S
PETERSBURG     CLEAR     33  27  76 CALM      30.19S
$$




USA.gov is the U.S. government's official web portal to all federal, state and local government web resources and services.